THAICOM 6

Last updated on Sat Oct 18 2025 00:02:53 GMT+0000 (Coordinated Universal Time)

1 39500U 14002A 25290.74960086 -.00000130 00000+0 00000+0 0 9995 2 39500 0.0572 105.8496 0003336 99.2993 169.7145 1.00273183 43029
UTC large
Height (km)
Speed (km/s)
/
Latitude / Longitude
Inclination (degrees)
Orbital Period (minutes)
Azimuth
Elevation
Range (km)
Doppler Factor

Next 0 passes for location: London (51.5072 / 0.1276)

Sorry there are no passes over London.